This demonstration page uses our WeatherBlox Daily Observations layout. Learn more.

Left ArrowRight Arrow

39.29038, -76.61219

Hourly Observations for December 24, 2020

Temp ( °F °C ) Dew Point ( °F °C ) Humidity (%) Winds ( mph kmh ) Pressure ( in mb ) Visibility ( mi km ) Precip ( " mm )
12:54 am 00:54 Cloudy 42 5.6 38 3.3 85 85 Calm 30.21 1023 10 16 0.00 0.00
1:54 am 01:54 Mostly Cloudy 43 6.1 38 3.3 82 82 Calm 30.19 1022 10 16 0.00 0.00
2:54 am 02:54 Cloudy 44 6.7 39 3.9 83 83 Calm 30.17 1022 10 16 0.00 0.00
3:54 am 03:54 Mostly Cloudy 42 5.6 38 3.3 85 85 Calm 30.13 1020 10 16 0.00 0.00
4:31 am 04:31 Cloudy 43 6.1 38 3.3 82 82 ENE 5 7 30.12 1020 10 16 0.00 0.00
4:54 am 04:54 Cloudy 42 5.6 38 3.3 85 85 E 3 6 30.10 1019 10 16 0.00 0.00
5:54 am 05:54 Cloudy 44 6.7 40 4.4 85 85 E 3 6 30.08 1019 10 16 0.00 0.00
6:54 am 06:54 Mostly Cloudy 46 7.8 42 5.6 86 86 ENE 6 9 30.05 1018 10 16 0.00 0.00
7:54 am 07:54 Mostly Cloudy 55 12.8 46 7.8 72 72 SE 8 13 30.04 1017 10 16 0.00 0.00
8:54 am 08:54 Cloudy 57 13.9 47 8.3 69 69 SSE 13 20 30.02 1017 10 16 0.00 0.00
9:54 am 09:54 Cloudy 58 14.4 48 8.9 70 70 SSE 10 17 29.99 1016 10 16 0.00 0.00
10:54 am 10:54 Cloudy 59 15 49 9.4 69 69 SE 17 28 29.96 1014 10 16 0.00 0.00
11:54 am 11:54 Cloudy with Light Rain 58 14.4 51 10.6 78 78 SSE 15 24 29.91 1013 7 11 0.00 0.00
12:54 pm 12:54 Cloudy 60 15.6 52 11.1 75 75 SSE 14 22 29.86 1011 10 16 0.01 0.25
1:54 pm 13:54 Cloudy with Light Rain 59 15 54 12.2 83 83 SSE 13 20 29.82 1010 4 6 0.02 0.51
2:54 pm 14:54 Cloudy with Light Rain 59 15 53 11.7 81 81 SSE 16 26 29.78 1008 7 11 0.01 0.25
3:54 pm 15:54 Cloudy with Light Rain 58 14.4 53 11.7 84 84 SE 14 22 29.75 1007 3 5 0.06 1.52
4:54 pm 16:54 Cloudy with Light Rain 59 15 54 12.2 83 83 SSE 18 30 29.70 1006 6 10 0.03 0.76
5:46 pm 17:46 Cloudy with Rain 59 15 55 12.8 87 87 S 15 24 29.72 1006 3 4 0.10 2.54
5:54 pm 17:54 Cloudy with Rain 59 15 55 12.8 87 87 SSE 9 15 29.71 1006 2 3 0.16 4.06
6:08 pm 18:08 Cloudy with Light Rain 58 14.4 55 12.8 90 90 SSE 9 15 29.69 1005 3 5 0.02 0.51
6:22 pm 18:22 Cloudy with Mist and Fog 59 15 55 12.8 87 87 SSE 9 15 29.68 1005 6 10 0.02 0.51
6:41 pm 18:41 Cloudy 58 14.4 55 12.8 90 90 SE 12 19 29.65 1004 10 16 0.02 0.51
6:54 pm 18:54 Cloudy 58 14.4 55 12.8 90 90 SSE 9 15 29.64 1004 10 16 0.02 0.51
7:39 pm 19:39 Cloudy 59 15 56 13.3 90 90 SSE 14 22 29.61 1003 10 16 0.01 0.25
7:54 pm 19:54 Cloudy with Light Rain 59 15 56 13.3 90 90 SE 12 19 29.59 1002 8 13 0.01 0.25
8:15 pm 20:15 Cloudy with Light Rain 59 15 56 13.3 90 90 SSE 13 20 29.59 1002 8 13 0.01 0.25
8:54 pm 20:54 Cloudy with Rain 59 15 56 13.3 90 90 SE 12 19 29.56 1001 5 8 0.14 3.56
9:41 pm 21:41 Cloudy 61 16.1 57 13.9 87 87 SSE 12 19 29.49 999 10 16 0.14 3.56
9:54 pm 21:54 Cloudy 61 16.1 57 13.9 87 87 SSE 10 17 29.47 998 10 16 0.14 3.56
10:24 pm 22:24 Mostly Cloudy 61 16.1 58 14.4 90 90 SE 15 24 29.47 998 10 16 0.00 0.00
10:54 pm 22:54 Cloudy 61 16.1 58 14.4 90 90 SE 13 20 29.43 997 10 16 0.00 0.00
11:54 pm 23:54 Cloudy 61 16.1 59 15 93 93 SSW 17 28 29.36 994 10 16 0.01 0.25
11:58 pm 23:58 Cloudy with Heavy Rain 61 16.1 58 14.4 90 90 WSW 18 30 29.42 996 1 1 0.01 0.25

Powered by AerisWeather